STARLINK-1304, 45376

Orbit data source: Space-Track

STARLINK-1304, 45376 is a payload satellite owned by SpaceX/Seattle (US) in LEO that was launched on Wed, 18 Mar 2020 UTC via an FALCON 9 launch vehicle from the Air Force Eastern Test Range (AFETR). Payload-class satellites include a variety of spacecraft equipped with specific instruments for various scientific and technological missions. These include communications satellites like Starlink; space stations such as the ISS; scientific satellites like the Hubble; Earth observation satellites from companies like Planet Labs, Umbra, and HawkEye 360; GPS; miniature CubeSats for education and research; and military/defense satellites.

Loading next visibility...
Identifier
45376, 2020-019S
Orbit
LEO
Country
Flag of USUS
Related business
Manufacturer
SpaceX/Seattle
Mission
Operational Commercial Communications
Bus & Motor
STARLINK, Unknown motor
Mass
260 kg wet, ~248 kg dry
Launch date (UTC)
2020-03-18 (6 years ago)
Launch vehicle
FALCON 9
Launch site
Air Force Eastern Test Range (AFETR)
Object type
Payload
Rocket body
Debris
Shape & HBR
Box + 1 Pan, 10.1 m
Radar Cross Section
13.562 m², Large (>1 m²)

Expand to show TLE details & history
Last TLE update: 1 day ago

TLE from 1 day ago
0 STARLINK-1304
1 45376U 20019S   25349.86642642  .00002366  00000-0  17769-3 0  9998
2 45376  53.0540 182.9127 0001331  93.0196 267.0946 15.06399291317099
Epoch: 2025-12-15T20:47Z
TLE epoch observation values (Epoch: 2025-12-15T20:47:39.242Z)
Latitude
0.00002°
Longitude
146.24037°
Altitude
548.14 km
Speed
7.589 km/s
True Right ascension
12h 11m 39s
True Declination
0° 00' 00"
Sunlit
Object was in daylight at epoch
Visualization orbit readout
Latitude
Unknown
Longitude
Unknown
Altitude
Unknown
Speed
Unknown
Apparent Right ascension
Unknown
Apparent Declination
Unknown
Sunlit
N/A
Visualization observer readout
Local Sidereal Time
20:19:31
Azimuth
Unknown
Elevation
Unknown
Doppler factor
Unknown
Orbital elements
Apogee altitude
548.406 km
Perigee altitude
546.563 km
Semi-major axis
6,925.622 km
Eccentricity
0.00013
Inclination
53.054°
RAAN
182.9127°
Arg. of periapsis
93.0196°
True anomaly
267.07937°
Mean anomaly
267.0946°
Eccentric anomaly
267.08698°
Mean motion
3.76578 °/min
Orbital period
95.6 mins
BSTAR
0.00017769
Loading maneuver chart data...
Computing Atmospheric mass density...
Loading historical data...
Loading historical data...
Loading historical data...
Loading historical data...
Loading historical data...
Loading historical data...
Loading historical data...

Documentation

Showing up to 5 results
|